Flag for Brazil Weather past 2 weeks in São Paulo, São Paulo, Brazil

Now
70 °F

Passing clouds.


Feels Like: 70 °F
Forecast: 66 / 73 °F
Wind: 6 mph from South

Location: Sao Paulo Airport


UV Index: 5 (Moderate)

Visibility: N/A


Pressure: 30.15 "Hg

Humidity: 69%

Dew point: 59 °F

Location of São PauloLocation

Historic Weather in São Paulo

°F

São Paulo temperature yesterday

Maximum temperature yesterday: 73 °F (at 12:00 PM)
Minimum temperature yesterday: 66 °F (at 4:00 AM)
Average temperature yesterday: 69 °F

Past Weeks' High & Low Weather Summary

 TemperatureHumidityPressure
High86 °F (Apr 8, 4:00 PM)100% (Apr 12, 9:00 PM)30.21 "Hg (Apr 12, 9:00 PM)
Low32 °F (Apr 12, 9:00 PM)27% (Apr 19, 1:00 PM)29.92 "Hg (Apr 9, 3:00 PM)
Average71 °F73%30.08 "Hg
* Reported Apr 8 10:00 AM — Apr 23 10:00 AM, São Paulo, Weather by CustomWeather, © 2014

Note: Actual official high and low records may vary slightly from our data, if they occured in-between our weather recording intervals... More about our weather records

Advertising

Historic Weather Conditions — Data for Previous 24 hours

 ConditionsComfort  
Time TempWeatherWind HumidityBarometerVisibility
10:00 AM
Apr 23
70 °FPassing clouds.6 mph69%30.15 "HgN/A
9:00 AM70 °FPassing clouds.6 mph73%30.12 "HgN/A
8:00 AM66 °FPassing clouds.6 mph83%30.12 "Hg4 mi
7:00 AM64 °FClear.2 mph88%30.09 "Hg5 mi
6:00 AM64 °FSunny.1 mph88%30.07 "Hg10 mi
5:00 AM64 °FFog.1 mph88%30.07 "Hg2 mi
4:00 AM66 °FClear.No wind83%30.07 "Hg10 mi
3:00 AM64 °FClear.1 mph83%30.07 "Hg10 mi
2:00 AM64 °FClear.1 mph83%30.07 "Hg10 mi
1:00 AM66 °FPassing clouds.3 mph78%30.07 "HgN/A
12:00 AM66 °FPassing clouds.5 mph78%30.09 "HgN/A
11:00 PM
Apr 22
68 °FPassing clouds.8 mph73%30.09 "HgN/A
10:00 PM68 °FPassing clouds.8 mph73%30.09 "HgN/A
9:00 PM68 °FClear.7 mph78%30.09 "Hg10 mi
8:00 PM68 °FPassing clouds.3 mph73%30.07 "HgN/A
7:00 PM70 °FPassing clouds.6 mph69%30.07 "HgN/A
6:00 PM70 °FPassing clouds.7 mph64%30.04 "HgN/A
5:00 PM72 °FPassing clouds.8 mph61%30.04 "HgN/A
4:00 PM73 °FPassing clouds.9 mph57%30.01 "HgN/A
3:00 PM72 °FPassing clouds.3 mph57%30.04 "HgN/A
2:00 PM72 °FPassing clouds.12 mph61%30.07 "HgN/A
1:00 PM73 °FPassing clouds.10 mph53%30.07 "HgN/A
12:00 PM73 °FSunny.10 mph61%30.09 "Hg10 mi
11:00 AM72 °FSunny.8 mph65%30.09 "Hg10 mi
Weather by CustomWeather, © 2014

See weather overview